Terminal Aerodrome Forecast
Issued by NWS

Home | Current Version | Previous Version | Text Only | Print | Product List | Glossary Off
Versions: 1 2 3 4 5 6 7 8 9 10 11 12 13 14

000
FTUS43 KFGF 171700
TAFBJI
TAF
KBJI 171725Z 1718/1818 35007G14KT P6SM SKC
     FM180000 VRB04KT P6SM SKC
     FM181300 12006KT P6SM SCT150=

USA.gov is the U.S. government's official web portal to all federal, state and local government web resources and services.